Time,TemperatureF,DewpointF,PressureIn,WindDirection,WindDirectionDegrees,WindSpeedMPH,WindSpeedGustMPH,Humidity,HourlyPrecipIn,Conditions,Clouds,dailyrainin,SoftwareType,DateUTC
2013-02-27 00:00:00,-999.9,-99.9,29.88,North,32767,-999.0,0.0,255,-99.99,,,0.00,Wunderground v.1.13,2013-02-27 05:00:00,
2013-02-27 00:10:00,-999.9,-99.9,29.88,North,32767,-999.0,0.0,255,-99.99,,,0.00,Wunderground v.1.13,2013-02-27 05:10:00,
2013-02-27 00:20:00,-999.9,-99.9,29.88,North,32767,-999.0,0.0,255,-99.99,,,0.00,Wunderground v.1.13,2013-02-27 05:20:00,
2013-02-27 00:30:00,-999.9,-99.9,29.88,North,32767,-999.0,0.0,255,-99.99,,,0.00,Wunderground v.1.13,2013-02-27 05:30:00,
2013-02-27 00:40:00,-999.9,-99.9,29.88,North,32767,-999.0,0.0,255,-99.99,,,0.00,Wunderground v.1.13,2013-02-27 05:40:00,
2013-02-27 00:50:00,-999.9,-99.9,29.88,North,32767,-999.0,0.0,255,-99.99,,,0.00,Wunderground v.1.13,2013-02-27 05:50:00,
2013-02-27 01:00:00,-999.9,-99.9,29.88,N/A,-737280,0.0,0.0,-32768,0.00,,,0.00,Wunderground v.1.13,2013-02-27 06:00:00,
2013-02-27 01:10:00,-999.9,-99.9,29.88,North,32767,-999.0,0.0,255,-99.99,,,0.00,Wunderground v.1.13,2013-02-27 06:10:00,
2013-02-27 01:20:00,-999.9,-99.9,29.89,North,32767,-999.0,0.0,255,-99.99,,,0.00,Wunderground v.1.13,2013-02-27 06:20:00,
2013-02-27 01:30:00,-999.9,-99.9,29.89,WNW,292,4.0,4.0,255,-99.99,,,0.00,Wunderground v.1.13,2013-02-27 06:30:00,
2013-02-27 01:40:00,-999.9,-99.9,29.89,WNW,292,4.0,4.0,255,-99.99,,,0.00,Wunderground v.1.13,2013-02-27 06:40:00,
2013-02-27 01:50:00,-999.9,-99.9,29.89,North,32767,-999.0,0.0,255,-99.99,,,0.00,Wunderground v.1.13,2013-02-27 06:50:00,
2013-02-27 02:00:00,-999.9,-99.9,29.88,North,32767,-999.0,0.0,255,-99.99,,,0.00,Wunderground v.1.13,2013-02-27 07:00:00,
2013-02-27 02:10:00,-999.9,-99.9,29.88,North,32767,-999.0,0.0,255,-99.99,,,0.00,Wunderground v.1.13,2013-02-27 07:10:00,
2013-02-27 02:20:00,-999.9,-99.9,29.88,North,32767,-999.0,0.0,255,-99.99,,,0.00,Wunderground v.1.13,2013-02-27 07:20:00,
2013-02-27 02:30:00,-999.9,-99.9,29.88,North,32767,-999.0,0.0,255,-99.99,,,0.00,Wunderground v.1.13,2013-02-27 07:30:00,
2013-02-27 02:40:00,-999.9,-99.9,29.88,North,32767,-999.0,0.0,255,-99.99,,,0.00,Wunderground v.1.13,2013-02-27 07:40:00,
2013-02-27 02:50:00,-999.9,-99.9,29.88,SW,215,185.0,185.0,255,-99.99,,,0.00,Wunderground v.1.13,2013-02-27 07:50:00,
2013-02-27 03:00:00,-999.9,-99.9,29.88,North,32767,-999.0,0.0,255,-99.99,,,0.00,Wunderground v.1.13,2013-02-27 08:00:00,
2013-02-27 03:10:00,-999.9,-99.9,29.88,North,32767,-999.0,0.0,255,-99.99,,,0.00,Wunderground v.1.13,2013-02-27 08:10:00,
2013-02-27 03:20:00,-999.9,-99.9,29.88,North,32767,-999.0,0.0,255,-99.99,,,0.00,Wunderground v.1.13,2013-02-27 08:20:00,
2013-02-27 03:30:00,-999.9,-99.9,29.88,North,32767,-999.0,0.0,255,-99.99,,,0.00,Wunderground v.1.13,2013-02-27 08:30:00,
2013-02-27 03:40:00,-999.9,-99.9,29.88,North,32767,-999.0,0.0,255,-99.99,,,0.00,Wunderground v.1.13,2013-02-27 08:40:00,
2013-02-27 03:50:00,-999.9,-99.9,29.88,North,32767,-999.0,0.0,255,-99.99,,,0.00,Wunderground v.1.13,2013-02-27 08:50:00,
2013-02-27 04:00:00,-999.9,-99.9,29.88,North,32767,-999.0,0.0,255,-99.99,,,0.00,Wunderground v.1.13,2013-02-27 09:00:00,
2013-02-27 04:10:00,-999.9,-99.9,29.88,North,32767,-999.0,0.0,255,-99.99,,,0.00,Wunderground v.1.13,2013-02-27 09:10:00,
2013-02-27 04:20:00,-999.9,-99.9,29.88,North,32767,-999.0,0.0,255,-99.99,,,0.00,Wunderground v.1.13,2013-02-27 09:20:00,
2013-02-27 04:30:00,-999.9,-99.9,29.88,North,32767,-999.0,0.0,255,-99.99,,,0.00,Wunderground v.1.13,2013-02-27 09:30:00,
2013-02-27 04:40:00,-999.9,-99.9,29.88,North,32767,-999.0,0.0,255,-99.99,,,0.00,Wunderground v.1.13,2013-02-27 09:40:00,
2013-02-27 04:50:00,-999.9,-99.9,29.89,North,32767,-999.0,0.0,255,-99.99,,,0.00,Wunderground v.1.13,2013-02-27 09:50:00,
2013-02-27 05:00:00,-999.9,-99.9,29.89,North,32767,-999.0,0.0,255,-99.99,,,0.00,Wunderground v.1.13,2013-02-27 10:00:00,
2013-02-27 05:10:00,-999.9,-99.9,29.89,North,32767,-999.0,0.0,255,-99.99,,,0.00,Wunderground v.1.13,2013-02-27 10:10:00,
2013-02-27 05:20:00,-999.9,-99.9,29.89,North,32767,-999.0,0.0,255,-99.99,,,0.00,Wunderground v.1.13,2013-02-27 10:20:00,
2013-02-27 05:30:00,-999.9,-99.9,29.89,North,32767,-999.0,0.0,255,-99.99,,,0.00,Wunderground v.1.13,2013-02-27 10:30:00,
2013-02-27 05:40:00,-999.9,-99.9,29.89,North,32767,-999.0,0.0,255,-99.99,,,0.00,Wunderground v.1.13,2013-02-27 10:40:00,
2013-02-27 05:50:00,64.7,-99.9,29.90,NNW,347,0.0,0.0,255,-99.99,,,0.00,Wunderground v.1.13,2013-02-27 10:50:00,
2013-02-27 06:10:00,64.7,-99.9,29.90,NNW,347,1.0,1.0,255,0.00,,,0.00,Wunderground v.1.13,2013-02-27 11:10:00,
2013-02-27 06:20:00,64.7,-99.9,29.90,NNW,336,0.0,0.0,255,0.00,,,0.00,Wunderground v.1.13,2013-02-27 11:20:00,
2013-02-27 06:30:00,-999.9,-99.9,29.90,North,32767,-999.0,0.0,255,-99.99,,,0.00,Wunderground v.1.13,2013-02-27 11:30:00,
2013-02-27 06:40:00,-999.9,-99.9,29.90,North,32767,-999.0,0.0,255,-99.99,,,0.00,Wunderground v.1.13,2013-02-27 11:40:00,
2013-02-27 06:50:00,-999.9,-99.9,29.91,North,32767,-999.0,0.0,255,-99.99,,,0.00,Wunderground v.1.13,2013-02-27 11:50:00,
2013-02-27 07:00:00,-999.9,-99.9,29.91,North,359,0.0,0.0,255,-99.99,,,0.00,Wunderground v.1.13,2013-02-27 12:00:00,
2013-02-27 07:10:00,63.2,-99.9,29.91,North,350,0.0,0.0,255,0.00,,,0.00,Wunderground v.1.13,2013-02-27 12:10:00,
2013-02-27 07:20:00,63.2,-99.9,29.91,North,359,0.0,0.0,255,0.00,,,0.00,Wunderground v.1.13,2013-02-27 12:20:00,
2013-02-27 07:30:00,63.2,-99.9,29.92,North,349,0.0,0.0,255,0.00,,,0.00,Wunderground v.1.13,2013-02-27 12:30:00,
2013-02-27 07:40:00,63.7,-99.9,29.92,North,0,8.0,8.0,255,0.00,,,0.00,Wunderground v.1.13,2013-02-27 12:40:00,
2013-02-27 07:50:00,63.7,58.8,29.93,NW,325,0.0,0.0,84,0.00,,,0.00,Wunderground v.1.13,2013-02-27 12:50:00,
2013-02-27 08:00:00,64.3,59.4,29.93,North,352,0.0,0.0,84,0.00,,,0.00,Wunderground v.1.13,2013-02-27 13:00:00,
2013-02-27 08:10:00,64.3,59.4,29.93,NNW,340,2.0,2.0,84,0.00,,,0.00,Wunderground v.1.13,2013-02-27 13:10:00,
2013-02-27 08:20:00,64.5,59.6,29.94,North,1,1.0,1.0,84,0.00,,,0.00,Wunderground v.1.13,2013-02-27 13:20:00,
2013-02-27 08:30:00,64.7,58.7,29.94,NW,325,2.0,2.0,81,0.00,,,0.00,Wunderground v.1.13,2013-02-27 13:30:00,
2013-02-27 08:40:00,64.8,58.8,29.94,North,0,2.0,2.0,81,0.00,,,0.00,Wunderground v.1.13,2013-02-27 13:40:00,
2013-02-27 08:50:00,64.7,58.7,29.95,NW,318,3.0,3.0,81,0.00,,,0.00,Wunderground v.1.13,2013-02-27 13:50:00,
2013-02-27 09:00:00,64.7,58.4,29.96,NNW,346,2.0,2.0,80,0.00,,,0.00,Wunderground v.1.13,2013-02-27 14:00:00,
2013-02-27 09:10:00,65.2,58.5,29.96,North,0,1.0,4.0,79,0.00,,,0.00,Wunderground v.1.13,2013-02-27 14:10:00,
2013-02-27 09:20:00,65.6,58.2,29.97,North,0,3.0,3.0,77,0.00,,,0.00,Wunderground v.1.13,2013-02-27 14:20:00,
2013-02-27 09:30:00,65.6,58.2,29.97,NW,315,0.0,0.0,77,0.00,,,0.00,Wunderground v.1.13,2013-02-27 14:30:00,
2013-02-27 09:40:00,65.6,58.2,29.97,NNW,337,0.0,0.0,77,0.00,,,0.00,Wunderground v.1.13,2013-02-27 14:40:00,
2013-02-27 09:50:00,65.6,58.2,29.98,NNE,23,2.0,2.0,77,0.00,,,0.00,Wunderground v.1.13,2013-02-27 14:50:00,
2013-02-27 10:00:00,65.6,58.2,29.98,NW,318,7.0,7.0,77,0.00,,,0.00,Wunderground v.1.13,2013-02-27 15:00:00,
2013-02-27 10:10:00,-999.9,-99.9,29.98,North,32767,-999.0,0.0,255,-99.99,,,0.00,Wunderground v.1.13,2013-02-27 15:10:00,
2013-02-27 10:20:00,66.3,-99.9,29.98,NW,306,1.0,1.0,255,0.00,,,0.00,Wunderground v.1.13,2013-02-27 15:20:00,
2013-02-27 10:30:00,66.3,57.0,29.99,NW,308,2.0,2.0,72,0.00,,,0.00,Wunderground v.1.13,2013-02-27 15:30:00,
2013-02-27 10:40:00,66.1,56.8,29.99,NW,322,1.0,1.0,72,0.00,,,0.00,Wunderground v.1.13,2013-02-27 15:40:00,
2013-02-27 10:50:00,66.6,57.3,29.98,NNW,337,1.0,1.0,72,0.00,,,0.00,Wunderground v.1.13,2013-02-27 15:50:00,
2013-02-27 11:00:00,66.6,57.3,29.99,West,278,6.0,6.0,72,0.00,,,0.00,Wunderground v.1.13,2013-02-27 16:00:00,
2013-02-27 11:10:00,-999.9,-99.9,29.99,North,32767,-999.0,0.0,255,-99.99,,,0.00,Wunderground v.1.13,2013-02-27 16:10:00,
2013-02-27 11:20:00,-999.9,-99.9,29.99,North,352,2.0,2.0,255,0.00,,,0.00,Wunderground v.1.13,2013-02-27 16:20:00,
2013-02-27 11:30:00,67.1,-99.9,29.98,NE,55,3.0,3.0,255,0.00,,,0.00,Wunderground v.1.13,2013-02-27 16:30:00,
2013-02-27 11:40:00,67.1,57.0,29.98,North,3,3.0,4.0,70,0.00,,,0.00,Wunderground v.1.13,2013-02-27 16:40:00,
2013-02-27 11:50:00,67.1,57.0,29.98,North,0,2.0,2.0,70,0.00,,,0.00,Wunderground v.1.13,2013-02-27 16:50:00,
2013-02-27 12:00:00,67.6,57.9,29.98,NW,326,2.0,4.0,71,0.00,,,0.00,Wunderground v.1.13,2013-02-27 17:00:00,
2013-02-27 12:10:00,67.3,57.6,29.98,North,0,4.0,4.0,71,0.00,,,0.00,Wunderground v.1.13,2013-02-27 17:10:00,
2013-02-27 12:20:00,67.6,57.1,29.98,NNW,347,1.0,8.0,69,0.00,,,0.00,Wunderground v.1.13,2013-02-27 17:20:00,
2013-02-27 12:30:00,66.8,56.7,29.98,North,1,3.0,3.0,70,0.00,,,0.00,Wunderground v.1.13,2013-02-27 17:30:00,
2013-02-27 12:40:00,66.4,56.3,29.98,West,274,3.0,7.0,70,0.00,,,0.00,Wunderground v.1.13,2013-02-27 17:40:00,
2013-02-27 12:50:00,66.4,55.9,29.97,NNE,14,2.0,2.0,69,0.00,,,0.00,Wunderground v.1.13,2013-02-27 17:50:00,
2013-02-27 13:00:00,66.8,56.3,29.97,West,280,2.0,2.0,69,0.00,,,0.00,Wunderground v.1.13,2013-02-27 18:00:00,
2013-02-27 13:10:00,66.8,56.3,29.97,North,0,2.0,2.0,69,0.00,,,0.00,Wunderground v.1.13,2013-02-27 18:10:00,
2013-02-27 13:20:00,66.8,55.9,29.96,NW,305,3.0,3.0,68,0.00,,,0.00,Wunderground v.1.13,2013-02-27 18:20:00,
2013-02-27 13:30:00,66.9,56.0,29.95,North,0,4.0,4.0,68,0.00,,,0.00,Wunderground v.1.13,2013-02-27 18:30:00,
2013-02-27 13:40:00,66.3,56.2,29.95,North,352,0.0,0.0,70,0.00,,,0.00,Wunderground v.1.13,2013-02-27 18:40:00,
2013-02-27 13:50:00,66.8,56.7,29.94,West,271,1.0,1.0,70,0.00,,,0.00,Wunderground v.1.13,2013-02-27 18:50:00,
2013-02-27 14:00:00,67.3,56.4,29.93,West,265,1.0,4.0,68,0.00,,,0.00,Wunderground v.1.13,2013-02-27 19:00:00,
2013-02-27 14:10:00,67.8,56.0,29.93,WNW,302,1.0,4.0,66,0.00,,,0.00,Wunderground v.1.13,2013-02-27 19:10:00,
2013-02-27 14:20:00,67.3,56.0,29.93,NW,315,2.0,2.0,67,0.00,,,0.00,Wunderground v.1.13,2013-02-27 19:20:00,
2013-02-27 14:30:00,66.9,56.0,29.93,NNW,344,2.0,2.0,68,0.00,,,0.00,Wunderground v.1.13,2013-02-27 19:30:00,
2013-02-27 14:40:00,66.8,55.5,29.93,WNW,296,3.0,3.0,67,0.00,,,0.00,Wunderground v.1.13,2013-02-27 19:40:00,
2013-02-27 14:50:00,66.8,55.5,29.93,NW,311,0.0,0.0,67,0.00,,,0.00,Wunderground v.1.13,2013-02-27 19:50:00,
2013-02-27 15:00:00,66.0,55.5,29.94,NNW,330,4.0,4.0,69,0.00,,,0.00,Wunderground v.1.13,2013-02-27 20:00:00,
2013-02-27 15:10:00,66.3,55.8,29.94,NNE,13,1.0,1.0,69,0.00,,,0.00,Wunderground v.1.13,2013-02-27 20:10:00,
2013-02-27 15:20:00,66.1,55.6,29.93,North,0,3.0,3.0,69,0.00,,,0.00,Wunderground v.1.13,2013-02-27 20:20:00,
2013-02-27 15:30:00,65.8,54.9,29.93,NW,323,2.0,2.0,68,0.00,,,0.00,Wunderground v.1.13,2013-02-27 20:30:00,
2013-02-27 15:40:00,65.6,54.8,29.93,NNW,337,2.0,6.0,68,0.00,,,0.00,Wunderground v.1.13,2013-02-27 20:40:00,
2013-02-27 15:50:00,65.5,54.7,29.93,WNW,292,2.0,2.0,68,0.00,,,0.00,Wunderground v.1.13,2013-02-27 20:50:00,
2013-02-27 16:00:00,65.2,54.8,29.93,NNW,342,1.0,1.0,69,0.00,,,0.00,Wunderground v.1.13,2013-02-27 21:00:00,
2013-02-27 16:10:00,64.7,53.9,29.93,North,0,2.0,2.0,68,0.00,,,0.00,Wunderground v.1.13,2013-02-27 21:10:00,
2013-02-27 16:20:00,64.8,54.4,29.94,NNW,330,1.0,8.0,69,0.00,,,0.00,Wunderground v.1.13,2013-02-27 21:20:00,
2013-02-27 16:30:00,64.3,53.5,29.94,NNW,333,1.0,1.0,68,0.00,,,0.00,Wunderground v.1.13,2013-02-27 21:30:00,
2013-02-27 16:40:00,63.7,53.7,29.94,North,359,1.0,1.0,70,0.00,,,0.00,Wunderground v.1.13,2013-02-27 21:40:00,
2013-02-27 16:50:00,64.0,54.0,29.94,NNW,333,0.0,0.0,70,0.00,,,0.00,Wunderground v.1.13,2013-02-27 21:50:00,
2013-02-27 17:00:00,63.2,53.6,29.94,North,7,1.0,1.0,71,0.00,,,0.00,Wunderground v.1.13,2013-02-27 22:00:00,
2013-02-27 17:10:00,63.1,53.9,29.94,NNW,339,1.0,1.0,72,0.00,,,0.00,Wunderground v.1.13,2013-02-27 22:10:00,
2013-02-27 17:20:00,63.4,54.2,29.94,North,3,1.0,1.0,72,0.00,,,0.00,Wunderground v.1.13,2013-02-27 22:20:00,
2013-02-27 17:30:00,62.7,53.9,29.94,NNW,344,0.0,0.0,73,0.00,,,0.00,Wunderground v.1.13,2013-02-27 22:30:00,
2013-02-27 17:40:00,62.4,54.0,29.94,NNW,344,0.0,0.0,74,0.00,,,0.00,Wunderground v.1.13,2013-02-27 22:40:00,
2013-02-27 17:50:00,61.6,54.0,29.94,North,0,0.0,0.0,76,0.00,,,0.00,Wunderground v.1.13,2013-02-27 22:50:00,
2013-02-27 18:00:00,61.3,54.0,29.94,NNW,330,0.0,0.0,77,0.00,,,0.00,Wunderground v.1.13,2013-02-27 23:00:00,
2013-02-27 18:10:00,61.0,53.7,29.94,North,359,1.0,2.0,77,0.00,,,0.00,Wunderground v.1.13,2013-02-27 23:10:00,
2013-02-27 18:20:00,60.7,53.8,29.95,NNW,335,0.0,0.0,78,0.00,,,0.00,Wunderground v.1.13,2013-02-27 23:20:00,
2013-02-27 18:30:00,60.4,53.9,29.95,NW,315,0.0,0.0,79,0.00,,,0.00,Wunderground v.1.13,2013-02-27 23:30:00,
2013-02-27 18:40:00,60.2,53.7,29.95,NNW,347,0.0,0.0,79,0.00,,,0.00,Wunderground v.1.13,2013-02-27 23:40:00,
2013-02-27 18:49:00,59.9,53.7,29.95,NW,319,0.0,0.0,80,0.00,,,0.00,Wunderground v.1.13,2013-02-27 23:49:00,
2013-02-27 18:59:00,59.9,53.7,29.95,NW,312,0.0,1.0,80,0.00,,,0.00,Wunderground v.1.13,2013-02-27 23:59:00,
2013-02-27 19:09:00,59.9,53.7,29.95,NW,312,0.0,0.0,80,0.00,,,0.00,Wunderground v.1.13,2013-02-28 00:09:00,
2013-02-27 19:19:00,-999.9,-99.9,29.95,North,32767,-999.0,0.0,255,-99.99,,,0.00,Wunderground v.1.13,2013-02-28 00:19:00,
2013-02-27 19:29:00,-999.9,-99.9,29.96,NW,320,0.0,0.0,255,-99.99,,,0.00,Wunderground v.1.13,2013-02-28 00:29:00,
2013-02-27 19:39:00,59.6,53.4,29.96,NNW,328,2.0,2.0,80,0.00,,,0.00,Wunderground v.1.13,2013-02-28 00:39:00,
2013-02-27 19:50:00,59.6,53.4,29.97,North,0,0.0,0.0,80,0.00,,,0.00,Wunderground v.1.13,2013-02-28 00:50:00,
2013-02-27 19:59:00,59.6,53.4,29.97,NW,312,0.0,0.0,80,0.00,,,0.00,Wunderground v.1.13,2013-02-28 00:59:00,
2013-02-27 20:10:00,59.6,53.4,29.97,NNW,329,3.0,3.0,80,0.00,,,0.00,Wunderground v.1.13,2013-02-28 01:10:00,
2013-02-27 20:19:00,59.6,53.4,29.97,NW,311,0.0,0.0,80,0.00,,,0.00,Wunderground v.1.13,2013-02-28 01:19:00,
2013-02-27 20:29:00,59.6,53.4,29.97,NNW,332,0.0,0.0,80,0.00,,,0.00,Wunderground v.1.13,2013-02-28 01:29:00,
2013-02-27 20:39:00,59.6,53.4,29.97,NNW,332,0.0,0.0,80,0.00,,,0.00,Wunderground v.1.13,2013-02-28 01:39:00,
2013-02-27 20:49:00,-999.9,-99.9,29.97,North,32767,-999.0,0.0,255,-99.99,,,0.00,Wunderground v.1.13,2013-02-28 01:49:00,
2013-02-27 20:59:00,59.9,-99.9,29.97,NNW,330,4.0,4.0,255,0.00,,,0.00,Wunderground v.1.13,2013-02-28 01:59:00,
2013-02-27 21:09:00,-999.9,-99.9,29.97,North,32767,-999.0,0.0,255,-99.99,,,0.00,Wunderground v.1.13,2013-02-28 02:09:00,
2013-02-27 21:19:00,-999.9,-99.9,29.97,North,32767,-999.0,0.0,255,-99.99,,,0.00,Wunderground v.1.13,2013-02-28 02:19:00,
2013-02-27 21:29:00,-999.9,-99.9,29.97,North,32767,-999.0,0.0,255,-99.99,,,0.00,Wunderground v.1.13,2013-02-28 02:29:00,
2013-02-27 21:39:00,-999.9,-99.9,29.97,North,32767,-999.0,0.0,255,-99.99,,,0.00,Wunderground v.1.13,2013-02-28 02:39:00,
2013-02-27 21:49:00,-999.9,-99.9,29.97,North,32767,-999.0,0.0,255,-99.99,,,0.00,Wunderground v.1.13,2013-02-28 02:49:00,
2013-02-27 21:59:00,-999.9,-99.9,29.98,North,32767,-999.0,0.0,255,-99.99,,,0.00,Wunderground v.1.13,2013-02-28 02:59:00,
2013-02-27 22:09:00,-999.9,-99.9,29.98,North,32767,-999.0,0.0,255,-99.99,,,0.00,Wunderground v.1.13,2013-02-28 03:09:00,
2013-02-27 22:19:00,60.2,-99.9,29.98,NW,325,4.0,4.0,255,0.00,,,0.00,Wunderground v.1.13,2013-02-28 03:19:00,
2013-02-27 22:29:00,60.2,-99.9,29.98,WNW,287,1.0,1.0,255,0.00,,,0.00,Wunderground v.1.13,2013-02-28 03:29:00,
2013-02-27 22:39:00,60.1,54.2,29.98,WNW,302,0.0,0.0,81,0.00,,,0.00,Wunderground v.1.13,2013-02-28 03:39:00,
2013-02-27 22:49:00,60.1,54.2,29.98,NW,311,0.0,0.0,81,0.00,,,0.00,Wunderground v.1.13,2013-02-28 03:49:00,
2013-02-27 22:59:00,60.1,54.2,29.98,NW,323,0.0,0.0,81,0.00,,,0.00,Wunderground v.1.13,2013-02-28 03:59:00,
2013-02-27 23:09:00,60.4,54.5,29.98,NNW,329,0.0,0.0,81,0.00,,,0.00,Wunderground v.1.13,2013-02-28 04:09:00,
2013-02-27 23:19:00,60.4,54.5,29.97,NW,312,0.0,0.0,81,0.00,,,0.00,Wunderground v.1.13,2013-02-28 04:19:00,
2013-02-27 23:29:00,60.4,54.5,29.97,NNW,332,2.0,2.0,81,0.00,,,0.00,Wunderground v.1.13,2013-02-28 04:29:00,
2013-02-27 23:39:00,60.7,54.8,29.97,North,0,2.0,2.0,81,0.00,,,0.00,Wunderground v.1.13,2013-02-28 04:39:00,
2013-02-27 23:49:00,60.7,54.8,29.97,NNW,335,0.0,0.0,81,0.00,,,0.00,Wunderground v.1.13,2013-02-28 04:49:00,
2013-02-27 23:59:00,60.9,55.0,29.97,WNW,291,2.0,2.0,81,0.00,,,0.00,Wunderground v.1.13,2013-02-28 04:59:00,